This demonstration page uses our WeatherBlox Daily Observations layout. Learn more.

Left ArrowRight Arrow

39.51506, -84.39828

Hourly Observations for August 6, 2021

Temp ( °F °C ) Dew Point ( °F °C ) Humidity (%) Winds ( mph kmh ) Pressure ( in mb ) Visibility ( mi km ) Precip ( " mm )
12:15 am 00:15 Clear 66 19 N/A N/A N N/A 30.09 1019 7 11 N/A
12:35 am 00:35 Hazy 64 18 N/A N/A N N/A 30.09 1019 7 11 N/A
12:55 am 00:55 Hazy 64 18 N/A N/A N N/A 30.09 1019 5 8 N/A
1:15 am 01:15 Hazy 64 18 N/A N/A N N/A 30.09 1019 7 11 N/A
1:35 am 01:35 Hazy 63 17 N/A N/A N N/A 30.09 1019 5 8 N/A
1:55 am 01:55 Hazy 63 17 N/A N/A N N/A 30.09 1019 5 8 N/A
2:15 am 02:15 Clear with Mist and Fog 63 17 N/A N/A N N/A 30.09 1019 3 4 N/A
2:35 am 02:35 Hazy 63 17 N/A N/A N N/A 30.08 1019 4 6 N/A
2:55 am 02:55 Mostly Cloudy with Fog 63 17 N/A N/A N N/A 30.08 1019 1 1 N/A
3:15 am 03:15 Mostly Cloudy with Fog 63 17 N/A N/A N N/A 30.08 1019 1 1 N/A
3:35 am 03:35 Hazy 63 17 N/A N/A N N/A 30.08 1019 4 6 N/A
3:55 am 03:55 Hazy 63 17 N/A N/A N N/A 30.09 1019 4 6 N/A
4:15 am 04:15 Hazy 63 17 N/A N/A N N/A 30.09 1019 4 6 N/A
4:35 am 04:35 Clear with Mist and Fog 61 16 N/A N/A N N/A 30.09 1019 3 4 N/A
4:55 am 04:55 Clear with Mist and Fog 61 16 N/A N/A N N/A 30.09 1019 3 5 N/A
5:15 am 05:15 Mostly Cloudy with Mist and Fog 61 16 N/A N/A N N/A 30.10 1019 1 2 N/A
5:35 am 05:35 Mostly Cloudy with Fog 59 15 N/A N/A N N/A 30.11 1020 0 0 N/A
5:55 am 05:55 Mostly Cloudy with Fog 61 16 N/A N/A N N/A 30.10 1019 N/A N/A
6:15 am 06:15 Mostly Cloudy with Fog 59 15 N/A N/A N N/A 30.12 1020 0 0 N/A
6:35 am 06:35 Mostly Cloudy with Fog 61 16 N/A N/A N N/A 30.11 1020 N/A N/A
6:55 am 06:55 Mostly Cloudy with Fog 61 16 N/A N/A N N/A 30.12 1020 N/A N/A
7:15 am 07:15 Mostly Cloudy with Fog 61 16 N/A N/A N N/A 30.12 1020 N/A N/A
7:35 am 07:35 Mostly Cloudy with Mist and Fog 61 16 N/A N/A N N/A 30.12 1020 1 2 N/A
7:55 am 07:55 Mostly Cloudy with Mist and Fog 63 17 N/A N/A N N/A 30.13 1020 4 6 N/A
8:15 am 08:15 Hazy 64 18 N/A N/A N N/A 30.13 1020 5 8 N/A
8:35 am 08:35 Hazy 66 19 N/A N/A N N/A 30.13 1020 5 8 N/A
8:55 am 08:55 Hazy 68 20 N/A N/A WSW 3 6 30.12 1020 7 11 N/A
9:15 am 09:15 Sunny 70 21.1 68 20 93 93 N N/A 30.13 1020 10 16 N/A
9:35 am 09:35 Sunny 71 21.6 68 19.9 90 90 WSW 3 6 30.13 1020 10 16 N/A
9:55 am 09:55 Sunny 72 22.2 67 19.5 85 85 N N/A 30.13 1020 10 16 N/A
10:15 am 10:15 Sunny 76 24.2 66 18.9 72 72 WSW 5 7 30.12 1020 10 16 N/A
10:35 am 10:35 Sunny 77 25.2 66 18.8 68 68 SW 7 11 30.12 1020 10 16 N/A
10:55 am 10:55 Mostly Cloudy 78 25.8 65 18.6 65 65 SW 9 15 30.13 1020 10 16 N/A
11:15 am 11:15 Partly Cloudy 80 26.6 66 18.7 62 62 WSW 7 11 30.13 1020 10 16 N/A
11:35 am 11:35 Sunny 81 27 65 18.4 59 59 SW 8 13 30.12 1020 10 16 N/A
11:55 am 11:55 Sunny 80 26.9 64 17.5 56 56 SW 9 15 30.12 1020 10 16 N/A
12:15 pm 12:15 Partly Cloudy 82 27.6 62 16.5 51 51 SW 10 17 30.12 1020 10 16 N/A
12:35 pm 12:35 Partly Cloudy 82 27.9 61 16.3 49 49 WSW 10 17 30.12 1020 10 16 N/A
12:55 pm 12:55 Sunny 83 28.2 60 15.8 47 47 WSW 10 17 30.12 1020 10 16 N/A
1:15 pm 13:15 Sunny 83 28.1 61 15.9 47 47 W 12 19 30.11 1020 10 16 N/A
1:35 pm 13:35 Sunny 82 28 61 16.2 49 49 WSW 5 7 30.10 1019 10 16 N/A
1:55 pm 13:55 Partly Cloudy 84 28.7 63 17.2 50 50 W 7 11 30.09 1019 10 16 N/A
2:15 pm 14:15 Partly Cloudy 83 28.5 62 16.5 48 48 W 6 9 30.08 1018 10 16 N/A
2:35 pm 14:35 Sunny 85 29.2 62 16.5 46 46 WNW 6 9 30.07 1018 10 16 N/A
2:55 pm 14:55 Sunny 84 29.1 62 16.5 47 47 W 10 17 30.06 1018 10 16 N/A
3:15 pm 15:15 Sunny 85 29.4 62 16.6 46 46 WSW 12 19 30.06 1018 10 16 N/A
3:35 pm 15:35 Partly Cloudy 84 29.1 63 17 48 48 W 9 15 30.06 1018 10 16 N/A
3:55 pm 15:55 Sunny 85 29.4 63 17.4 48 48 W 10 17 30.05 1018 10 16 N/A
4:15 pm 16:15 Sunny 85 29.2 62 16.8 47 47 W 9 15 30.04 1017 10 16 N/A
4:35 pm 16:35 Sunny 85 29.4 63 17.2 48 48 W 13 20 30.04 1017 10 16 N/A
4:55 pm 16:55 Sunny 85 29.2 63 17 48 48 WSW 7 11 30.03 1017 10 16 N/A
5:15 pm 17:15 Sunny 84 28.9 63 17.1 49 49 WSW 6 9 30.02 1017 10 16 N/A
5:35 pm 17:35 Sunny 84 28.9 62 16.4 47 47 W 9 15 30.02 1017 10 16 N/A
5:55 pm 17:55 Sunny 84 28.9 62 16.7 48 48 SW 7 11 30.02 1017 10 16 N/A
6:15 pm 18:15 Sunny 84 28.8 62 16.8 48 48 WSW 9 15 30.01 1016 10 16 N/A
6:35 pm 18:35 Sunny 83 28.5 62 16.5 48 48 WSW 8 13 30.02 1016 10 16 N/A
6:55 pm 18:55 Sunny 83 28.3 64 17.7 53 53 W 7 11 30.02 1016 10 16 N/A
7:15 pm 19:15 Sunny 82 27.8 63 17.1 52 52 W 7 11 30.02 1016 10 16 N/A
7:35 pm 19:35 Sunny 82 27.5 64 17.6 55 55 WSW 6 9 30.02 1017 10 16 N/A
7:55 pm 19:55 Sunny 80 26.8 65 18.2 59 59 WSW 5 7 30.02 1017 10 16 N/A
8:15 pm 20:15 Sunny 78 25.7 66 18.9 66 66 WSW 3 6 30.02 1017 10 16 N/A
8:35 pm 20:35 Sunny 77 25.1 66 18.8 68 68 WSW 5 7 30.03 1017 10 16 N/A
8:55 pm 20:55 Clear 74 23.4 66 19.1 77 77 W 3 6 30.04 1017 10 16 N/A
9:15 pm 21:15 Clear 75 23.7 65 18.5 73 73 N N/A 30.04 1017 10 16 N/A
9:35 pm 21:35 Clear 74 23.5 65 18.4 73 73 N N/A 30.05 1017 10 16 N/A
9:55 pm 21:55 Clear 71 21.5 68 20.1 92 92 N N/A 30.05 1018 10 16 N/A
10:15 pm 22:15 Clear 70 21.3 68 19.9 92 92 N N/A 30.06 1018 10 16 N/A
10:35 pm 22:35 Clear 70 20.9 68 19.9 94 94 ENE 3 6 30.06 1018 10 16 N/A
10:55 pm 22:55 Clear 70 20.9 68 19.9 94 94 N N/A 30.07 1018 10 16 N/A
11:15 pm 23:15 Clear 69 20.3 67 19.7 96 96 N N/A 30.07 1018 10 16 N/A
11:35 pm 23:35 Clear 68 19.9 67 19.3 96 96 NE 3 6 30.06 1018 10 16 N/A
11:55 pm 23:55 Clear 68 19.8 67 19.3 97 97 N N/A 30.08 1018 10 16 N/A

Powered by AerisWeather